Flag for Canada Weather past 2 weeks in Dieppe, New Brunswick, Canada

Now
9 °F

Light snow. Overcast.


Feels Like: -11 °F
Forecast: -5 / 20 °F
Wind: 21 mph from West

Location: Moncton

Current Time: Feb 1, 2015 at 8:48:38 AM

Latest Report: Feb 1, 2015 at 8:00 AM


Visibility: 2 mi

Pressure: 29.57 "Hg

Humidity: 72%

Dew point: 1 °F

Location of DieppeLocation

Historic Weather in Dieppe — Graph

°F

Dieppe temperature yesterday

Maximum temperature yesterday: 27 °F (at 12:50 PM)
Minimum temperature yesterday: 19 °F (at 12:00 AM)
Average temperature yesterday: 23 °F

Past Weeks' High & Low Weather Summary

 TemperatureHumidityPressure
High46 °F (Jan 19, 11:00 AM)100% (Jan 19, 4:00 PM)30.37 "Hg (Jan 19, 4:00 PM)
Low-6 °F (Jan 17, 7:00 AM)46% (Jan 17, 5:00 PM)28.64 "Hg (Jan 25, 2:00 AM)
Average19 °F76%29.82 "Hg
* Reported Jan 17 7:00 AM — Feb 1 7:00 AM, Dieppe, Weather by CustomWeather, © 2014

Note: Actual official high and low records may vary slightly from our data, if they occured in-between our weather recording intervals... More about our weather records

Advertising

Dieppe weather history for previous 24 hours

 ConditionsComfort  
Time TempWeatherWind HumidityBarometerVisibility
7:00 AM
Feb 1
10 °FLight snow. Ice fog.18 mph79%29.55 "Hg2 mi
6:00 AM12 °FLight snow. Overcast.14 mph85%29.51 "Hg4 mi
5:00 AM14 °FLight snow. Mostly cloudy.14 mph79%29.49 "Hg2 mi
4:00 AM16 °FLight snow. Overcast.16 mph79%29.48 "Hg6 mi
3:00 AM18 °FLight snow. Mostly cloudy.13 mph79%29.47 "Hg4 mi
2:00 AM18 °FLight snow. Mostly cloudy.15 mph79%29.47 "Hg2 mi
1:00 AM18 °FLight snow. Mostly cloudy.13 mph86%29.46 "Hg1 mi
12:00 AM19 °FLight snow. Mostly cloudy.17 mph79%29.46 "Hg1 mi
11:00 PM
Jan 31
21 °FLight snow. Mostly cloudy.15 mph86%29.43 "Hg4 mi
10:00 PM21 °FLight snow. Mostly cloudy.14 mph86%29.42 "Hg4 mi
9:00 PM23 °FLight snow. Overcast.16 mph80%29.41 "Hg4 mi
8:00 PM23 °FLight snow. Overcast.21 mph80%29.39 "Hg1 mi
7:00 PM23 °FLight snow. Overcast.24 mph86%29.36 "Hg1 mi
6:00 PM23 °FLight snow. Overcast.29 mph86%29.36 "Hg2 mi
5:00 PM23 °FLight snow. Overcast.32 mph86%29.33 "Hg1 mi
4:00 PM25 °FLight snow. Overcast.35 mph86%29.29 "Hg1 mi
3:04 PM25 °FLight snow. Overcast.30 mph86%29.30 "Hg0 mi
2:00 PM27 °FLight snow. Ice fog.24 mph86%29.33 "Hg0 mi
1:00 PM27 °FLight snow. Ice fog.21 mph86%29.36 "Hg1 mi
12:50 PM27 °FLight snow. Ice fog.26 mph86%29.37 "Hg1 mi
12:00 PM25 °FLight snow. Ice fog.23 mph93%29.40 "Hg0 mi
11:00 AM25 °FSnow. Ice fog.28 mph93%29.44 "Hg0 mi
10:00 AM25 °FSnow. Ice fog.22 mph86%29.49 "Hg0 mi
9:00 AM23 °FHeavy snow. Ice fog.23 mph93%29.52 "Hg0 mi
8:00 AM23 °FSnow. Ice fog.22 mph93%29.55 "Hg0 mi
Weather by CustomWeather, © 2014

See weather overviewHow to use our weather pages